This is the latest recevied weather packets stored in our database for station/object F1DKL-13. If no packets are shown the sender has not sent any weather packets the latest 10 day(s).
| Time | Temp. | Humidity | Pressure | Rain* | Wind** | Luminosity | Snow |
|---|---|---|---|---|---|---|---|
| 1777457706 | 24.44° C | 30% | 1022.6 hPa | 0 mm | - | - | - |
| 1777457406 | 24.44° C | 23% | 1022.6 hPa | 0 mm | - | - | - |
| 1777457106 | 24.44° C | 27% | 1022.6 hPa | 0 mm | - | - | - |
| 1777456806 | 24.44° C | 33% | 1022.6 hPa | 0 mm | - | - | - |
| 1777456506 | 23.89° C | 32% | 1022.6 hPa | 0 mm | - | - | - |
| 1777456206 | 23.33° C | 27% | 1022.6 hPa | 0 mm | - | - | - |
| 1777455906 | 23.33° C | 27% | 1022.6 hPa | 0 mm | - | - | - |
| 1777455606 | 23.33° C | 32% | 1022.6 hPa | 0 mm | - | - | - |
| 1777455306 | 23.33° C | 31% | 1022.6 hPa | 0 mm | - | - | - |
| 1777455006 | 23.33° C | 37% | 1022.6 hPa | 0 mm | - | - | - |
| 1777454706 | 23.33° C | 36% | 1022.6 hPa | 0 mm | - | - | - |
| 1777454406 | 22.78° C | 38% | 1022.6 hPa | 0 mm | - | - | - |
| 1777454106 | 22.78° C | 44% | 1022.6 hPa | 0 mm | - | - | - |
| 1777453806 | 22.78° C | 44% | 1022.6 hPa | 0 mm | - | - | - |
| 1777453506 | 22.22° C | 48% | 1022.6 hPa | 0 mm | - | - | - |
| 1777453206 | 22.22° C | 48% | 1022.6 hPa | 0 mm | - | - | - |
| 1777452906 | 21.67° C | 47% | 1022.6 hPa | 0 mm | - | - | - |
| 1777452606 | 21.67° C | 47% | 1022.6 hPa | 0 mm | - | - | - |
| 1777452306 | 21.11° C | 48% | 1022.6 hPa | 0 mm | - | - | - |
| 1777452006 | 21.11° C | 48% | 1022.6 hPa | 0 mm | - | - | - |
| 1777451706 | 21.67° C | 61% | 1022.6 hPa | 0 mm | - | - | - |
| 1777451406 | 21.11° C | 63% | 1022.6 hPa | 0 mm | - | - | - |
| 1777451106 | 20.56° C | 64% | 1021.5 hPa | 0 mm | - | - | - |
| 1777450806 | 20.56° C | 71% | 1021.5 hPa | 0 mm | - | - | - |
| 1777450506 | 20° C | 82% | 1021.5 hPa | 0 mm | - | - | - |
* Rain latest hour (hover to see other rain measurements)
** Current wind speed in m/s (hover to see current wind gust speed)